Regional Weather Roundup
Issued by NWS

Home | Current Version | Previous Version | Text Only | Print | Product List | Glossary On
Versions: 1 2 3 4 5 6 7 8 9 10 11 12 13 14 15 16 17 18 19 20 21 22 23 24 25 26 27
000
ASUS45 KPSR 300310
RWRAZ

ARIZONA HOURLY REGIONAL WEATHER ROUNDUP
NATIONAL WEATHER SERVICE PHOENIX AZ
800 PM MST FRI JUL 29 2016

NOTE: FAIR INDICATES FEW OR NO CLOUDS BELOW 12,000 FEET WITH NO
SIGNIFICANT WEATHER AND/OR OBSTRUCTIONS TO VISIBILITY.

AZZ001>003-036-300400-
NORTHWEST ARIZONA

CITY           SKY/WX    TMP DP  RH WIND       PRES   REMARKS
BULLHEAD CITY  CLEAR    111  52  14 S12       29.60R HX 109
KINGMAN        PTCLDY    97  53  22 SW16      29.89R
$$

AZZ004>008-015-016-018-300400-
NORTH CENTRAL ARIZONA

CITY           SKY/WX    TMP DP  RH WIND       PRES   REMARKS
GRAND CANYON   MOCLDY    72  48  42 CALM      30.21F
WILLIAMS       CLOUDY    70  48  46 S7        30.30R
PRESCOTT       LGT RAIN  80  52  37 S14       30.12R
FLAGSTAFF      CLOUDY    69  45  41 CALM      30.23R
PAYSON         LGT RAIN  73  57  56 W9        30.16R
PAGE           MOCLDY    94  38  14 W9        29.94R
$$

AZZ009>014-017-300400-
NORTHEAST ARIZONA

CITY           SKY/WX    TMP DP  RH WIND       PRES   REMARKS
WINSLOW        CLOUDY    83  51  33 S13       30.05F
SAINT JOHNS    CLOUDY    73  49  42 S15       30.13F
WINDOW ROCK    PTCLDY    71  47  42 S13       30.22R
SHOW LOW       CLOUDY    68  48  49 S15       30.20S
$$

AZZ023-300400-
GREATER PHOENIX AREA

CITY           SKY/WX    TMP DP  RH WIND       PRES   REMARKS
PHOENIX        MOCLDY   108  55  17 MISG      29.70R THUNDER HX 107
BUCKEYE        PTCLDY   104  59  22 SW14G21   29.70R HX 104
GLENDALE       CLOUDY   106  52  16 N24G32    29.72R THUNDER HX 103
LUKE AFB       DRIZZLE  100  59  25 NE21G36   29.71S HX 100
DEER VALLEY    TSTM      92  58  31 NE25G39   29.74S
SCOTTSDALE     TSTM      98  56  24 NE13G39   29.79R
MESA-FALCON    MOCLDY   N/A N/A N/A N23G35    29.76
MESA-GATEWAY   CLOUDY    99  55  23 E39G51    29.77R VSB 1/2
$$

AZZ027-028-300400-
SOUTHWEST MARICOPA COUNTY AND PINAL COUNTY

CITY           SKY/WX    TMP DP  RH WIND       PRES   REMARKS
CASA GRANDE    CLOUDY    97  57  26 SE45G61   29.85R VSB<1/4
GILA BEND      FAIR     101  64  29 SW20      29.69R HX 104
$$

AZZ503-504-507>509-300400-
SOUTHEAST ARIZONA

CITY           SKY/WX    TMP DP  RH WIND       PRES   REMARKS
TUCSON         RAIN      78  70  76 E3        30.01S
DAVIS-MONTHAN  LGT RAIN  75  72  88 N2        29.99S
RYAN FIELD     MOCLDY    75  70  83 NE8       30.00R
NOGALES        CLOUDY    76  63  64 NE15G24   30.02R
SIERRA VISTA   CLOUDY    76  60  58 W12       30.10R
DOUGLAS        CLOUDY    83  54  36 VRB6      29.99R
SAFFORD        CLOUDY    87  50  27 NW10      29.95R
$$

AZZ020-021-025-026-031-300400-
SOUTHWEST ARIZONA

CITY           SKY/WX    TMP DP  RH WIND       PRES   REMARKS
YUMA           PTCLDY    98  68  37 S13       29.66R HX 103
$$

CAZ031-033-041-043-047-048-061-300400-
SOUTHERN CALIFORNIA

CITY           SKY/WX    TMP DP  RH WIND       PRES   REMARKS
DOWNTOWN L.A.  CLEAR     75  62  64 CALM      29.77R
L.A. AIRPORT   CLEAR     71  62  73 W10       29.78R
SAN DIEGO      MOCLDY    69  64  84 S8        29.82R
BURBANK        CLEAR     82  58  43 S8        29.77S
ONTARIO        PTCLDY    83  58  42 SW12      29.78R
RIVERSIDE      CLEAR     85  58  39 W8        29.78R
PALM SPRINGS   CLEAR    105  64  26 E5        29.64R HX 108
EL CENTRO NAS  CLEAR     99  68  36 SE12      29.60R HX 104
IMPERIAL       CLEAR    102  70  35 SE16      29.59R HX 110
BLYTHE         CLEAR    106  66  27 S21       29.62R HX 111
NEEDLES        MOCLDY   110  50  13 SW6       29.63R HX 107
$$

NVZ020-UTZ003-300400-
SOUTHERN NEVADA-UTAH

CITY           SKY/WX    TMP DP  RH WIND       PRES   REMARKS
LAS VEGAS      PTCLDY   108  39   9 CALM      29.69R HX 102
SALT LAKE CITY PTCLDY    92  36  14 N5        29.93R
$$

NMZ009-TXZ055-300400-
NEW MEXICO-WEST TEXAS

CITY           SKY/WX    TMP DP  RH WIND       PRES   REMARKS
ALBUQUERQUE    CLOUDY    72  57  59 S5        30.11F
EL PASO        MOCLDY    88  56  33 SE20      29.99R
$$


........................KEY........................
SKY/WX - SKY CONDITION/WEATHER
TMP    - TEMPERATURE IN FAHRENHEIT
DP     - DEW POINT IN FAHRENHEIT
RH     - RELATIVE HUMIDITY IN PERCENT
WIND   - DIRECTION AND SPEED IN MILES PER HOUR (MPH)
VRB    - VARIABLE WIND DIRECTION
PRES   - MEAN SEA LEVEL PRESSURE IN INCHES OF MERCURY
         F - FALLING PRESSURE   R - RISING PRESSURE
         S - STEADY PRESSURE
VSB    - VISIBILITY IN MILES
HX     - HEAT INDEX IN FAHRENHEIT
WCI    - WIND CHILL INDEX IN FAHRENHEIT
TC     - TEMPERATURE IN CELSIUS WHICH IS ALSO KNOWN AS
         TEMPERATURE IN CENTIGRADE
AFB    - AIR FORCE BASE
         LUKE AFB IS LUKE AIR FORCE BASE
         DAVIS-MONTHAN IS DAVIS-MONTHAN AIR FORCE BASE
NAS    - NAVAL AIR STATION
         EL CENTRO NAS IS EL CENTRO NAVAL AIR STATION
N/A    - NOT AVAILABLE





USA.gov is the U.S. government's official web portal to all federal, state and local government web resources and services.